Location: Bjelajci
(45.0103°N, 16.1758°E)
Time: 04:17:42
(UTC+00:00)

Cosmos 676 Rocket - Pass Details

Date: 14 July 2020
Orbit: 753 x 785 km, 74.0° (Epoch: 11 August)

Event Time Altitude Azimuth Distance (km) Brightness Sun altitude
Exits shadow 01:16:41 27° 200° (SSW) 1,440 4.8 -16.6°
Maximum altitude 01:19:37 89° 291° (WNW) 779 4.0 -16.3°
Drops below altitude 10° 01:24:56 10° 21° (NNE) 2,337 7.8 -15.8°
Sets 01:27:20 0° 22° (NNE) 3,273 8.9 -15.5°
